Printer-friendly version

IAU Minor Planet Center

Minor Planet Center

MPEC 2002-L52 : 2002 LE27

The following Minor Planet Electronic Circular may be linked-to from your own Web pages, but must not otherwise be redistributed electronically.


Read MPEC 2002-L51 Read MPEC 2002-L53


M.P.E.C. 2002-L52                                Issued 2002 June 11, 15:30 UT

     The Minor Planet Electronic Circulars contain information on unusual
         minor planets and routine data on comets.  They are published
   on behalf of Commission 20 of the International Astronomical Union by the
          Minor Planet Center, Smithsonian Astrophysical Observatory,
                          Cambridge, MA 02138, U.S.A.

             Prepared using the Tamkin Foundation Computer Network

                              MPC@CFA.HARVARD.EDU
          URL http://cfa-www.harvard.edu/iau/mpc.html  ISSN 1523-6714

                                   2002 LE27

Observations:
     K02L27E  C2002 05 18.27310 15 57 38.33 -18 31 11.7          19.1        644
     K02L27E  C2002 05 18.27965 15 57 38.00 -18 31 07.9          18.9        644
     K02L27E  C2002 05 18.34429 15 57 34.73 -18 30 34.7          18.9        644
     K02L27E  C2002 05 18.35389 15 57 34.26 -18 30 29.1          18.6        644
     K02L27E  C2002 05 18.40673 15 57 31.59 -18 30 01.1          18.9        644
     K02L27E  C2002 05 18.41980 15 57 30.94 -18 29 53.8          19.0        644
     K02L27E  C2002 05 29.41189 15 48 23.23 -16 42 48.1          19.8        608
     K02L27E  C2002 05 29.42257 15 48 22.58 -16 42 40.5          20.0        608
     K02L27E  C2002 05 29.43281 15 48 21.94 -16 42 34.6          19.5        608
     K02L27E* C2002 06 08.24725 15 39 58.38 -14 56 57.1          18.8        704
     K02L27E  C2002 06 08.27401 15 39 56.93 -14 56 39.9          19.1        704
     K02L27E  C2002 06 08.28752 15 39 56.22 -14 56 31.3          19.2        704
     K02L27E  C2002 06 08.30127 15 39 55.47 -14 56 21.8          19.0        704
     K02L27E  C2002 06 10.21625 15 38 29.12 -14 35 53.6          18.9        704
     K02L27E  C2002 06 10.22654 15 38 28.55 -14 35 47.4          19.3        704
     K02L27E  C2002 06 10.23683 15 38 28.04 -14 35 40.3          18.6        704
     K02L27E  C2002 06 10.24431 15 38 27.70 -14 35 38.9          19.1        704
     K02L27E  C2002 06 10.24711 15 38 27.53 -14 35 33.9          18.6        704
     K02L27E  C2002 06 10.24726 15 38 27.60 -14 35 33.7          19.1        704
     K02L27E  C2002 06 10.25740 15 38 26.99 -14 35 27.3          18.7        704
     K02L27E  C2002 06 10.25775 15 38 27.09 -14 35 30.3          19.3        704
     K02L27E  C2002 06 10.26082 15 38 26.90 -14 35 25.1          18.9        704
     K02L27E  C2002 06 10.27132 15 38 26.41 -14 35 21.7          19.6        704
     K02L27E  C2002 06 10.27425 15 38 26.18 -14 35 16.5          19.0        704
     K02L27E  C2002 06 10.28496 15 38 25.76 -14 35 11.7          19.1        704
     K02L27E  C2002 06 10.28788 15 38 25.51 -14 35 07.8          18.6        704
     K02L27E  C2002 06 11.25439 15 37 44.56 -14 24 54.0          18.7        644
     K02L27E  C2002 06 11.27874 15 37 43.35 -14 24 38.4          18.6        644
     K02L27E  C2002 06 11.31493 15 37 41.55 -14 24 15.5          18.8        644

Observer details:
608 Haleakala-NEAT/MSSS.  Observers E. F. Helin, S. Pravdo, K. Lawrence,
    P. Kervin, R. Maeda, J. Africano, M. Hicks.  1.2-m reflector + CCD.
644 Palomar Mountain/NEAT.  Observers E. F. Helin, S. Pravdo, K. Lawrence,
    M. Hicks, R. Thicksten.  1.2-m Schmidt + CCD.
704 Lincoln Laboratory ETS, New Mexico.  Observers M. Blythe, F. Shelly,
    M. Bezpalko, R. Huber, L. Manguso, S. Adams, J. Piscitelli.  Measurers
    J. Stuart, R. Sayer, J. B. Evans, H. Viggh.  1.0-m f/2.15 reflector + CCD.

Orbital elements:
2002 LE27
Epoch 2002 May 6.0 TT = JDT 2452400.5                   MPC
M 327.96262              (2000.0)            P               Q
n   0.30600541     Peri.   83.11442     +0.63911585     +0.76810334
a   2.1809715      Node   226.69029     -0.72527823     +0.58487873
e   0.4543176      Incl.    3.09972     -0.25593442     +0.26064178
P   3.22           H   18.6           G   0.15           U   7
Residuals in seconds of arc
020518 644  0.1-  0.2-    020608 704  0.2-  0.0     020610 704 (1.2+  3.5-)
020518 644  0.1-  0.2+    020608 704  0.2+  0.3-    020610 704  0.8+  0.3-
020518 644  0.1-  0.3-    020608 704  0.1+  0.2+    020610 704 (1.5+  3.7-)
020518 644  0.1+  0.2+    020610 704  0.5-  0.3-    020610 704  0.3+  0.3-
020518 644  0.0   0.1-    020610 704  1.0-  0.7-    020610 704 (2.2+  2.5-)
020518 644  0.1+  0.1+    020610 704  0.7-  0.1-    020610 704  0.8+  0.4-
020529 608  0.1+  0.2-    020610 704 (0.0   3.5-)   020611 644  0.2+  0.8+
020529 608  0.2+  0.6+    020610 704  0.4-  0.3-    020611 644  0.2+  1.0+
020529 608  0.0   0.0     020610 704  0.8+  0.2-    020611 644  0.2+  0.8+
020608 704  0.4-  0.2+    020610 704  0.5-  0.3-

Ephemeris:
2002 LE27                a,e,i = 2.18, 0.45, 3                   q = 1.1901
Date    TT    R. A. (2000) Decl.     Delta      r     Elong.  Phase     V
2002 06 05    15 42.63   -15 31.9    0.414    1.415   162.4    12.5    18.2
2002 06 15    15 35.38   -13 46.2    0.386    1.365   150.7    21.4    18.2
2002 06 25    15 32.18   -12 17.2    0.368    1.319   140.0    29.7    18.3
2002 07 05    15 34.76   -11 16.5    0.357    1.279   130.9    36.9    18.4
2002 07 15    15 44.11   -10 49.2    0.351    1.245   123.5    42.9    18.5
2002 07 25    16 00.63   -10 53.9    0.348    1.218   118.0    47.4    18.5
2002 08 04    16 24.16   -11 23.5    0.348    1.200   114.3    50.4    18.6
2002 08 14    16 54.35   -12 08.5    0.351    1.191   112.3    51.9    18.6
2002 08 24    17 30.45   -12 55.9    0.359    1.191   111.7    52.1    18.7
2002 09 03    18 10.90   -13 31.6    0.375    1.201   112.0    51.1    18.8
2002 09 13    18 53.76   -13 44.0    0.401    1.220   112.9    49.5    18.9
2002 09 23    19 36.77   -13 26.3    0.439    1.247   113.7    47.5    19.1
2002 10 03    20 17.93   -12 38.7    0.490    1.281   114.0    45.5    19.3
2002 10 13    20 56.13   -11 26.4    0.555    1.322   113.6    43.8    19.6
2002 10 23    21 30.99   -09 55.4    0.633    1.368   112.4    42.3    19.9
2002 11 02    22 02.60   -08 12.0    0.724    1.418   110.4    41.0    20.3
2002 11 12    22 31.44   -06 20.6    0.828    1.472   107.8    39.8    20.6
2002 11 22    22 57.99   -04 24.4    0.943    1.527   104.5    38.8    20.9
2002 12 02    23 22.68   -02 25.7    1.069    1.585   100.9    37.7    21.3
2002 12 12    23 45.97   -00 26.2    1.204    1.644    96.9    36.5    21.6
2002 12 22    00 08.15   +01 32.9    1.347    1.703    92.6    35.2    21.9
2003 01 01    00 29.48   +03 30.3    1.496    1.762    88.0    33.9    22.1

Timothy B. Spahr             (C) Copyright 2002 MPC           M.P.E.C. 2002-L52

Read MPEC 2002-L51 Read MPEC 2002-L53


Our Web policy. Index to the CBAT/MPC/ICQ pages.


Valid HTML 4.01!